Location: Coed Ely
(51.5661°N, 3.4150°W)
Time: 00:40:25
(UTC+00:00)

CZ-3B R/B - Pass Details

Date: 28 January 2021
Orbit: 278 x 17416 km, 54.8° (Epoch: 28 February)

Event Time Altitude Azimuth Distance (km) Brightness Sun altitude
Rises 17:26:16 0° 293° (WNW) 1,942 5.4 -5.0°
Reaches altitude 10° 17:27:39 10° 294° (WNW) 1,215 4.3 -5.2°
Maximum altitude 17:29:49 81° 23° (NNE) 441 1.3 -5.6°
Drops below altitude 10° 17:34:43 10° 111° (ESE) 2,690 4.9 -6.3°
Sets 17:39:26 0° 113° (ESE) 5,001 6.2 -6.9°
